AirNav   Everest Fuels
 
 1240 users online  

42TN Oliver Landing Airport
Paris, Tennessee, USA

GOING TO PARIS?


FAA INFORMATION EFFECTIVE 13 AUGUST 2020

Location

FAA Identifier: 42TN
Lat/Long: 36-24-43.0000N 088-15-56.0000W
36-24.716667N 088-15.933333W
36.4119444,-88.2655556
(estimated)
Elevation: 475 ft. / 145 m (estimated)
From city: 8 miles NE of PARIS, TN
Time zone: UTC -5 (UTC -6 during Standard Time)
Zip code: 38251

Airport Operations

Airport use: Private use. Permission required prior to landing
Activation date: 01/2005
Control tower: no
ARTCC: MEMPHIS CENTER
FSS: JACKSON FLIGHT SERVICE STATION
Attendance: UNATNDD
Wind indicator: yes
Segmented circle: no

Airport Communications

UNICOM: 122.7
WX AWOS-3 at PHT (7 nm SW): 118.825 (731-644-0451)
WX AWOS-3 at CEY (16 nm N): 119.975 (270-489-2424)

Nearby radio navigation aids

NDB name  Hdg/Dist  Freq  Var  ID
TRAINER037/12.141000ETIQ - .. --.-
HUNTINGDON029/21.721702WHZD .... --.. -..

Airport Services

Runway Information

Runway 10/28

Dimensions: 2800 x 100 ft. / 853 x 30 m
Surface: turf
RUNWAY 10  RUNWAY 28
Traffic pattern: rightleft

Airport Ownership and Management from official FAA records

Ownership: Privately-owned
Owner: GEORGE JOSEPH OLIVER
11271 SOUTHINGTON PLACE
JACKSONVILLE, FL 32257
Phone 904-945-3178
Manager: GEORGE JOSEPH OLIVER
11271 SOUTHINGTON PLACE
JACKSONVILLE, FL 32257
Phone 904-945-3178

Airport Operational Statistics

Aircraft based on the field: 2
Single engine airplanes: 2
    

Additional Remarks

FOR CD CTC MEMPHIS ARTCC AT 901-368-8453.

Instrument Procedures

There are no published instrument procedures at 42TN.

Some nearby airports with instrument procedures:

KPHT - Henry County Airport (7 nm SW)
KCEY - Kyle-Oakley Field Airport (16 nm N)
KHZD - Carroll County Airport (22 nm SW)
0M4 - Benton County Airport (25 nm S)
M25 - Mayfield Graves County Airport (26 nm NW)
 
Loc | Ops | Rwys | IFR | FBO | Links
Com | Nav | Svcs | Stats | Notes
Area around 42TN (Oliver Landing Airport)
 
Road maps at: MapQuest Bing Google
 
Aerial photo
No photo
 
Sectional chart

 
Airport distance calculator
Flying to Oliver Landing Airport? Find the distance to fly.

From to 42TN

Sunrise and sunset
Times for 13-Aug-2020
 Local
(UTC-5)
 Zulu
(UTC)
Morning civil twilight05:4410:44
Sunrise06:1111:11
Sunset19:4400:44
Evening civil twilight20:1201:12

Current date and time
Zulu (UTC)  13-Aug-2020 13:26:49
Local (UTC-5)  13-Aug-2020 08:26:49
 
METAR
KPHT 
7nm SW 
131315Z AUTO 14004KT 10SM CLR 24/22 A3004 RMK A01
KCEY 
16nm N 
131315Z AUTO 00000KT 10SM CLR 24/22 A3004 RMK AO1
TAF
KHOP 
40nm NE 
130801Z 1308/1414 07006KT 9999 SCT020 BKN045 QNH3001INS TEMPO 1308/1311 4800 BR BECMG 1316/1317 03006KT 8000 -SHRA BKN050 BKN100 QNH2994INS TEMPO 1318/1401 06020G25KT 4800 -TSRA BKN030CB BECMG 1402/1403 06006KT 9999 NSW BKN035 QNH2993INS BECMG 1408/1409 VRB06KT 9000 -SHRA BKN030 QNH2994INS TX29/1319Z TN22/1311Z
KCKV 
43nm E 
131146Z 1312/1412 00000KT P6SM SCT020 BKN050 TEMPO 1312/1314 3SM BR BKN004 FM131400 VRB03KT P6SM BKN080 FM141100 00000KT P6SM VCTS BKN060CB
KPAH 
46nm NW 
131141Z 1312/1412 00000KT 1SM BR SCT010 BKN120 TEMPO 1312/1314 1/4SM FG BKN003 FM131400 VRB03KT P6SM SCT010 SCT120 FM131600 VRB05KT P6SM VCTS SCT025CB BKN050 FM140000 VRB03KT P6SM BKN100 FM140600 VRB02KT 5SM BR SCT100
NOTAMs
Click for the latest NOTAMs
NOTAMs are issued by the DoD/FAA and will open in a separate window not controlled by AirNav.

 

 
 

Would you like to see your business listed on this page?

 If your business provides an interesting product or service to pilots, flight crews, aircraft, or users of the Oliver Landing Airport, you should consider listing it here.  To start the listing process, click on the button below
 
Add a business
 

Other Pages about Oliver Landing Airport

Update a link
 
Copyright © AirNav, LLC. All rights reserved. Privacy Policy  Contact